Location: Les Moreaux
(47.2278°N, 1.4966°E)
Time: 22:27:52
(UTC+00:00)

Meteor 2-8 Rocket - Pass Details

Date: 19 May 2025
Orbit: 937 x 957 km, 82.5° (Epoch: 12 June)

Event Time Altitude Azimuth Distance (km) Brightness Sun altitude
Rises 23:14:05 0° 351° (N) 3,648 9.0 -22.3°
Reaches altitude 10° 23:16:35 10° 352° (N) 2,699 8.0 -22.4°
Maximum altitude 23:22:47 81° 80° (E) 975 4.4 -22.5°
Enters shadow 23:24:49 45° 161° (SSE) 1,275 4.6 -22.5°
